Regional Weather Roundup
Issued by NWS Lake Charles, LA

Home | Current Version | Previous Version | Text Only | Print | Product List | Glossary On
Versions: 1 2 3 4 5 6 7 8 9 10 11 12 13 14 15 16 17 18 19 20 21 22 23 24 25 26 27 28 29 30 31 32 33 34 35 36 37 38 39 40 41 42 43 44 45 46 47 48 49 50
000
ASUS44 KLCH 290910
RWRLCH
RWRLCH
REGIONAL WEATHER ROUNDUP
NATIONAL WEATHER SERVICE LAKE CHARLES LA
400 AM CDT FRI AUG 29 2014

Note: "fair" indicates few or no clouds below 12,000 feet with no
significant weather and/or obstructions to visibility.


ACROSS SOUTHEAST TEXAS

CITY           SKY/WX    TMP DP  RH WIND       PRES   REMARKS
BEAUMONT       CLEAR     81  74  79 E6        29.88S
BEAUMONT CITY    N/A     76  75  96 NE5       29.89S
ORANGE         SUNNY     78  78 100 E6        29.90S
JASPER         CLEAR     72  70  95 CALM      29.94S
$$

ACROSS CENTRAL LOUISIANA

CITY           SKY/WX    TMP DP  RH WIND       PRES   REMARKS
LEESVILLE      PTCLDY    75  73  93 CALM      29.93S
FULLERTON        N/A     75  72  90 CALM      29.91S
ALEXANDRIA INT PTCLDY    76  73  91 CALM      29.92S
ESLER FIELD    PTCLDY    74  72  93 CALM      29.93F FOG
DERIDDER         N/A     75  73  94 CALM      29.94S FOG
OAKDALE          N/A     72  71  96 CALM      29.92F FOG
OPELOUSAS        N/A     74  73  96 CALM      29.92F
$$

ACROSS SOUTHWEST AND SOUTH CENTRAL LOUISIANA

CITY           SKY/WX    TMP DP  RH WIND       PRES   REMARKS
SULPHUR        MOSUNNY   78  76  96 E5        29.90S
LAKE CHARLES   PTCLDY    77  74  90 E6        29.89F
CHENNAULT INT  PTCLDY    76  74  91 E5        29.91S
CAMERON PHI      N/A     79  75  89 E8        29.90S
DEQUINCY         N/A     74  73  98 CALM      29.91S
JENNINGS         N/A     75  74  97 E5        29.91F
LAFAYETTE      PTCLDY    77  74  90 E3        29.92F
NEW IBERIA     PTCLDY    78  75  90 E5        29.92F
ABBEVILLE        N/A     75  73  95 CALM      29.91F
PATTERSON        N/A     75  73  94 NE5       29.94F
SALT POINT       N/A     79  76  90 CALM      29.90F
$$

SELECTED SITES ACROSS THE REGION

CITY           SKY/WX    TMP DP  RH WIND       PRES   REMARKS
HOUSTON BUSH   PTCLDY    77  75  94 CALM      29.88F
HOUSTON HOBBY  CLEAR     79  75  87 CALM      29.87S
GALVESTON      PTCLDY    84  77  79 SE12      29.86F
COLLEGE STAT   CLEAR     77  72  84 CALM      29.89S
CONROE         CLEAR     74  72  93 CALM      29.90S
HUNTSVILLE     PTCLDY    78  75  90 CALM      29.90S
LUFKIN         CLEAR     77  72  84 SE6       29.91S
SHREVEPORT     MOCLDY    78  72  81 S5        29.92R
MONROE         CLEAR     72  70  93 CALM      29.95R
NATCHEZ MS     CLEAR     75  72  88 SE3       29.96S
BATON ROUGE    PTCLDY    75  73  93 CALM      29.93F
N.O. INTL ARPT PTCLDY    79  73  82 CALM      29.93F
SLIDELL        CLEAR     72  70  93 CALM      29.94F
$$

MARINE REPORTS

STATION/POSITION TIME  TEMP    WIND        PRES    VSBY  WAVE
                       AIR SEA DIR/SP/G                  HT/PER
                 (UTC) (F)     (DEG/KT/KT) (MB)    (MI)  (FT/S)
BUOY 30 S HIGH I 0900   85 86  120/ 16/ 17 1010.6F         4/ 5
SEA RIM ST PARK  0900   83     120/ 12/ 15 1012.1F
PORT ARTHUR      0900      86  110/  5/  9 1011.7S
SABINE PASS N    0900   84 84  120/ 12/ 15 1011.7R
TEXAS POINT      0900   84 84  120/ 17/ 18 1011.7R
CALCASIEU PASS   0900   80 84  100/  8/ 11 1013.1F
LK CHARLES BEACH 0900   78 88              1013.1S
MARSH ISLAND     NOT AVBL
FRESH WATER LOCK 0900   80 83   60/  5/  7 1012.2F
AMERADA PASS     0900   78 84   80/  3/  5 1012.6F
$$


USA.gov is the U.S. government's official web portal to all federal, state and local government web resources and services.